Free Severe Weather Alerts by Email and Text Message   

 
Follow iAlert.com on twitter @ialertcom
Search For Active Alerts in Your Area  
  Hi Guest:  [ Sign-up / Services ] [ Login ]

Current weather by "City, St" or "zip code"  

 

Advertise Here

Hazardous Weather Conditions

No active alerts for PHILADELPHIA, PENNSYLVANIA

Current Conditions: PHILADELPHIA, PENNSYLVANIA

Overcast


43.0 F

Last Updated on Mar 26 2017, 6:54 am EDT
Humidity: 80%
Wind Speed: E 13.8 mph
Barometer 30.40 in
Dewpoint: 37.0 F
Visibility: 10.00 mi
Precip: --
Heat Index: NA
Wind Chill: 36 F
Current conditions at:

Philadelphia, Northeast Philadelphia Airport, PA (KPNE)

Lat: 40.07 Lon: -75.013

Local Radar Image active severe weather and emergency alerts image image weather storm and storm spotter reports image weather observation monitoring service image
Local
Radar
Active
Alerts
Storm Reports Weather
Monitoring

Weather Alert Notification Services


ialert severe weather and emergency alerts by text message and email ialert daily weather forecast by email and text message service ialert real-time weather-observation monitoring and alert notification service ialert storm report monitoring alert notification

Observation History for PHILADELPHIA, PENNSYLVANIA


Time Wind
(mph)
Vis
(mi)
Weather Precip (in) Temperature (F) Relative
Humidity
Wind
Chill
(°F)
Heat
Index
(°F)
Pressure
Air Dwpt altimeter
(in)
sea level
(mb)
6:54 am EDT E 13.8 10.00 Overcast -- 43.0 37.0 80% 36 NA 30.40 1029.4
5:54 am EDT E 11.5 10.00 Overcast -- 44.0 37.9 79% 38 NA 30.39 1028.9
4:54 am EDT E 10.4 10.00 Overcast -- 44.0 37.9 79% 38 NA 30.38 1028.6
3:54 am EDT NE 13.8 10.00 Overcast -- 44.0 39.0 83% 37 NA 30.37 1028.4
2:54 am EDT E 15.0 10.00 Mostly Cloudy -- 44.0 39.0 83% 37 NA 30.37 1028.4
1:54 am EDT E 11.5 10.00 Overcast -- 45.0 39.0 80% 39 NA 30.38 1028.6
12:54 am EDT E 12.7 10.00 Overcast -- 45.0 39.0 80% 39 NA 30.38 1028.7
11:54 pm EDT E 15.0 10.00 Overcast -- 46.0 39.0 77% 40 NA 30.37 1028.2
10:54 pm EDT E 9.2 10.00 Fair -- 46.0 39.0 77% 41 NA 30.36 1028.1
9:54 pm EDT E 13.8 10.00 Fair -- 47.0 39.9 77% 41 NA 30.35 1027.6
8:54 pm EDT E 8.1 10.00 Partly Cloudy -- 48.0 41.0 77% 44 NA 30.32 1026.5
7:54 pm EDT E 12.7 10.00 Fair -- 52.0 43.0 72% 48 NA 30.29 1025.8
6:54 pm EDT E 17.3 7.00 Overcast -- 56.0 45.0 67% 52 NA 30.27 1025.0
5:54 pm EDT NE 15.0 9.00 Overcast 00.01 60.0 48.9 67% 57 NA 30.23 1023.5
4:54 pm EDT E 8.1 8.00 Overcast -- 63.0 55.0 76% 63 NA 30.19 1022.2
3:54 pm EDT N 0.0 5.00 Light Rain 00.01 67.0 57.9 73% NA NA 30.18 1021.8
2:54 pm EDT N 0.0 10.00 Overcast -- 71.0 51.1 49% NA NA 30.16 1021.4
1:54 pm EDT N 0.0 10.00 Mostly Cloudy -- 69.0 50.0 51% NA NA 30.17 1021.4
12:54 pm EDT W 4.6 10.00 Partly Cloudy -- 67.0 50.0 55% NA NA 30.17 1021.6
11:54 am EDT SW 3.5 10.00 Overcast -- 64.0 48.0 56% NA NA 30.17 1021.5
10:54 am EDT SW 6.9 10.00 Partly Cloudy -- 62.0 48.0 60% 62 NA 30.17 1021.5
9:54 am EDT SW 8.1 10.00 Fair -- 59.0 46.9 64% 58 NA 30.17 1021.6
8:54 am EDT SW 5.8 10.00 A Few Clouds -- 57.0 46.0 67% 56 NA 30.16 1021.3
7:54 am EDT SW 4.6 10.00 Fair -- 54.0 44.1 69% 53 NA 30.16 1021.1

Regional Weather Observation:


Pottstown, Pottstown Limerick Airport, PA (KPTW)

Overcast
41.0 F

Doylestown, Doylestown Airport, PA (KDYL)

Overcast
40.0 F

Quakertown Airport, PA (KUKT)

Overcast
39.0 F

Allentown Queen City Municipal Airport, PA (KXLL)

Overcast
39.0 F

Reading, Reading Regional Airport, PA (KRDG)

Overcast
44.0 F

Philadelphia, Philadelphia International Airport, PA (KPHL)

Overcast
43.0 F

Advertise Here


Advertise Here